This is the latest recevied weather packets stored in our database for station/object W5HKR. If no packets are shown the sender has not sent any weather packets the latest 10 day(s).
| Time | Temp. | Humidity | Pressure | Rain* | Wind** | Luminosity | Snow |
|---|---|---|---|---|---|---|---|
| 1777548803 | 16.67° C | 90% | 983.5 hPa | 0 mm | - | - | - |
| 1777548503 | 16.67° C | 90% | 983.7 hPa | 0 mm | - | - | - |
| 1777548203 | 16.67° C | 91% | 983.6 hPa | 0 mm | - | - | - |
| 1777548154 | 16.67° C | 91% | 983.5 hPa | 0 mm | - | - | - |
| 1777547902 | 18.33° C | 91% | 990.6 hPa | 0 mm | - | - | - |
| 1777547602 | 16.67° C | 91% | 983.1 hPa | 0 mm | - | - | - |
| 1777547303 | 18.33° C | 91% | 990.6 hPa | 0 mm | - | - | - |
| 1777547074 | 16.67° C | 92% | 983.2 hPa | 0 mm | - | - | - |
| 1777546702 | 18.33° C | 91% | 990.6 hPa | 0 mm | - | - | - |
| 1777546403 | 18.33° C | 91% | 990.6 hPa | 0 mm | - | - | - |
| 1777546103 | 18.33° C | 91% | 990.6 hPa | 0 mm | - | - | - |
| 1777545994 | 18.33° C | 91% | 990.6 hPa | 0 mm | - | - | - |
| 1777545803 | 16.67° C | 93% | 983.1 hPa | 0 mm | - | - | - |
| 1777545204 | 18.33° C | 91% | 990.6 hPa | 0 mm | - | - | - |
| 1777544903 | 18.33° C | 91% | 990.6 hPa | 0 mm | - | - | - |
| 1777544603 | 18.33° C | 91% | 990.6 hPa | 0 mm | - | - | - |
| 1777544302 | 16.67° C | 94% | 982.1 hPa | 0 mm | - | - | - |
| 1777544003 | 16.67° C | 94% | 982.1 hPa | 0 mm | - | - | - |
| 1777543835 | 18.33° C | 91% | 990.6 hPa | 0 mm | - | - | - |
| 1777543704 | 16.67° C | 94% | 982.3 hPa | 0 mm | - | - | - |
| 1777543403 | 16.67° C | 94% | 981.9 hPa | 0 mm | - | - | - |
| 1777543102 | 18.33° C | 91% | 990.6 hPa | 0 mm | - | - | - |
| 1777542803 | 16.67° C | 94% | 983.4 hPa | 0 mm | - | - | - |
| 1777542754 | 18.33° C | 91% | 990.6 hPa | 0 mm | - | - | - |
| 1777542503 | 18.33° C | 91% | 990.6 hPa | 0 mm | - | - | - |
* Rain latest hour (hover to see other rain measurements)
** Current wind speed in m/s (hover to see current wind gust speed)